LEMUR-2-NOGUECORREIG (41997 NORAD) Tracking and Keplerian Element Data

This shows tracking and keplerian element data for the satellite.

Feedback or suggestion? Click here.




ElementValue
Catalog41997
NameLEMUR-2-NOGUECORREIG
Epoch Orbit34648
Epoch Day126.94022157
Epoch Year2023
RAAN199.137
Inclination97.2081
Eccentricity0.0005167
Argument of Perigee186.3171
Mean Anonmoly173.8036
Mean Motion15.87302905
Decay Rate0.00513706
L11 41997U 17008BB 23126.94022157 .00513706 00000+0 18634-2 0 9995
L22 41997 97.2081 199.1370 0005167 186.3171 173.8036 15.87302905346488



Live tracking and technical data element details for LEMUR-2-NOGUECORREIG (NORAD 41997). LEMUR-2-NOGUECORREIG can be tracked NOW for your location showing map with azimuth and elevation plus other details from your city location.







IsCatalogInMostPopularTable: catalog: 41997, numindb: 463
Update: records affected: 1



GetName: 41997 LEMUR-2-NOGUECORREIG

Hit Count: updated at: Thu, 22 May 2025 03:58:31 GMT